Вернуться в каталог

STARLINK-37669

АктивенСвязьVLEO
NORAD 69204·PAYLOAD·🇺🇸 United States

Запущен May 25, 2026 с Cape Canaveral Space Force Station

Loading…

Ближайшие Пролёты (ближайшие 24 часа)

TLE

СвежийSource: CelesTrak SupGP

Эпоха: Sep 15, 2026, 04:32 UTC

1 69204C 26114Y   26258.18937500  .00036265  00000+0  10714-2 0  2585
2 69204  53.1569 138.3835 0001258  76.6227 268.6523 15.34374243    18

Отслеживайте STARLINK-37669 в реальном времени с AllMySat

Download on the App Store